Location: Unspecified
(44.0704°N, 88.6889°W)
Time: 22:02:01
(UTC+02:00)

ISS - Pass Details

Date: 25 March 2019
Orbit: 408 x 410 km, 51.6° (Epoch: 22 April)

Event Time Altitude Azimuth Distance (km) Brightness Sun altitude
Rises 01:36:04 0° 228° (SW) 2,325 0.7 -5.2°
Reaches altitude 10° 01:38:10 10° 224° (SW) 1,467 -0.4 -5.5°
Maximum altitude 01:41:24 59° 144° (SE) 477 -3.7 -6.1°
Drops below altitude 10° 01:44:40 10° 64° (ENE) 1,473 -1.5 -6.7°
Enters shadow 01:45:45 - 62° (ENE) 1,915 -0.9 -6.9°
